sat.trackr.live / text

‹ back to catalog

FLOCK 4G-7

NORAD 62624 · 2025-009R

PAYLOAD ACTIVE UNKNOWN

§ Identity

Operator
Country
US
Launch date
2025-01-14
Launch site
AFWTR
Launch vehicle
Mass (kg)
RCS (m²)

Purposes: earth_obs

External: N2YO · Heavens-Above · Gunter

§ Orbital elements

Epoch: 2026-05-25T03:46:25.020192Z

Period
94.19 min
Inclination
97.3944°
Eccentricity
0.0003718
Mean motion
15.28755246 rev/d
Perigee alt
477.0 km
Apogee alt
482.1 km
Semi-major
6,857.7 km
B*
4.1105e-4
RAAN
226.6139°
Arg perigee
66.4830°
Mean anomaly
293.6800°
Rev number
7,538

§ Raw data

FLOCK 4G-71 62624U 25009R   26145.15723403  .00011423  00000+0  41105-3 0  99932 62624  97.3944 226.6139 0003718  66.4830 293.6800 15.28755246 75389

JSON: /api/v1/satellites/62624 · /tle

For live sub-satellite position, see the globe view (requires WebGL).

§ Visibility from observer

Set your observer location to see the next 7 days of passes ≥ 10°. The values pass through the URL so the page stays shareable.

No JS? Fill the form by hand. The geolocation button needs JavaScript.